Regional Weather Roundup
Issued by NWS Mobile, AL

Home | Current Version | Previous Version | Text Only | Print | Product List | Glossary On
Versions: 1 2 3 4 5 6 7 8 9 10 11 12 13 14 15 16 17 18 19 20 21 22 23 24 25 26 27 28 29 30 31 32 33 34 35 36 37 38 39 40 41 42 43 44 45 46 47 48 49 50
000
ASUS44 KMOB 290810
RWRMOB
REGIONAL WEATHER ROUNDUP
NATIONAL WEATHER SERVICE MOBILE AL
200 AM CST MON DEC 29 2014

NOTE: "FAIR" INDICATES FEW OR NO CLOUDS BELOW 12,000 FEET WITH NO
      SIGNIFICANT WEATHER AND/OR OBSTRUCTIONS TO VISIBILITY.

  * THESE STATIONS ARE PART OF THE UNIVERSITY OF SOUTH ALABAMA
    MESONET AND ARE NOT UNDER NWS OR FAA QUALITY CONTROL.

ALZ061>064-290900-
COASTAL ALABAMA

CITY           SKY/WX    TMP DP  RH WIND       PRES   REMARKS
MOBILE REG APT CLOUDY    55  55 100 NE9       30.06F
BROOKLEY FIELD CLOUDY    58  55  90 N8G18     30.06F
USA CAMPUS*      N/A     57  55  94 CALM      30.06F
DOG RIVER*     NOT AVBL


CITY           SKY/WX    TMP DP  RH WIND       PRES   REMARKS
MOUNT VERNON*  NOT AVBL
SARALAND*      NOT AVBL
BAY MINETTE*   NOT AVBL
LOXLEY*          N/A     55  55 100 N7        30.06F
ROBERTSDALE*     N/A     55  55 100 VRB3      30.06F
FAIRHOPE*        N/A     57  55  94 N6        30.05F
ELBERTA*         N/A     57  55  94 N6        30.03F
FOLEY*           N/A     63  63 100 NW6       30.00F
GRAND BAY*       N/A     57  55  94 NE8       30.04F
DAUPHIN ISLND* NOT AVBL
BON SCOUR NWR* NOT AVBL
GULF SHORES    CLOUDY    58  55  92 N9G16     30.04F

$$

ALZ051>060-290900-
INTERIOR SOUTHWEST AND SOUTH CENTRAL ALABAMA

CITY           SKY/WX    TMP DP  RH WIND       PRES   REMARKS
GREENVILLE     CLOUDY    57  54  89 N9        30.06F
EVERGREEN      LGT RAIN  56  54  93 N3        30.07F
CASTLEBERRY*   NOT AVBL
ATMORE*          N/A     55  55 100 N6        30.08F
DIXIE*           N/A     55  55 100 N3        30.05
ANDALUSIA/OPP  CLOUDY    62  57  83 N14       30.06R
ANDALUSIA*       N/A     57  57 100 NW12      30.06
FLORALA APT    LGT RAIN  64  61  90 NW7       30.06R FOG
FLORALA*         N/A     63  63 100 NW6       30.00F

$$

FLZ001>006-290900-
WESTERN FLORIDA PANHANDLE

CITY           SKY/WX    TMP DP  RH WIND       PRES   REMARKS
PENSACOLA      CLOUDY    58  55  90 N13       30.04F
NAS PENSACOLA  NOT AVBL
MILTON         CLOUDY    57  55  93 NE7G17    30.05S
WHTNG S FIELD  CLOUDY    59  55  87 N15G22    30.05S


CITY           SKY/WX    TMP DP  RH WIND       PRES   REMARKS
WALNUT HILL*   NOT AVBL
JAY*           NOT AVBL
DUKE FIELD     CLOUDY    64  63  94 NW16G22   30.02F
CRESTVIEW      CLOUDY    64  63  96 NW14      30.05S
VALPARAISO     CLOUDY    65  64  95 NW8       30.02F
DESTIN         CLOUDY    66  65  96 N9        30.01F

$$

MSZ076-079-290900-
INTERIOR SOUTHEAST MISSISSIPPI

CITY           SKY/WX    TMP DP  RH WIND       PRES   REMARKS
LEAKESVILLE*   NOT AVBL
AGRICOLA*      NOT AVBL

$$

MARINE OBSERVATIONS

STATION/POSITION TIME  TEMP    WIND        PRES    WAVE
                       AIR SEA DIR/SP/G            HT/PER
                 (UTC) (F)     (DEG/KT/KT) (MB)    (FT/S)
PASCAGOULA       0800   58      20/  9/ 11 1017.1R
PETIT BOIS ISLND 0800   59      30/ 13/ 16 1017.5S
GRAND BAY        0700   58      10/  9     1019.0S
KATRINA CUT      0700   59      40/ 13     1018.3F
CEDAR POINT      0700   57      30/ 11     1017.3F
E DAUPHIN ISLAND 0700   59      10/ 19/ 22 1017.6F
MIDDLE BAY LIGHT 0700   53      20/ 17     1016.6F
USCG MOBILE BAY  0800   57 58   10/  9/ 12 1016.7F
STATE DOCKS      0800   57 55              1017.6F
MEAHER PARK      0700   57     350/  6     1018.3F
WEEKS BAY        0700   58                   N/A
FORT MORGAN      0800   58      30/ 18/ 20 1016.6F
12 S ORANGE BCH  0800   62 68  350/ 19/ 23 1016.0F   3/ 4
PENSACOLA BAY    0800   61 60  360/ 10/ 15 1017.2F
64 S DAUPHIN ISL 0800   64 74   10/ 23/ 29 1016.3F

$$

SELECTED LOCATIONS ACROSS THE REGION

CITY           SKY/WX    TMP DP  RH WIND       PRES   REMARKS
NEW ORLEANS    CLOUDY    57  55  93 NE3       30.04S
GULFPORT       CLOUDY    57  55  93 NE8       30.03F
PASCAGOULA AP  CLOUDY    58  56  93 NE7       30.04F
PASCAGOULA*      N/A     57  57 100 NE8       30.05S
HATTIESBURG    CLOUDY    54  52  93 CALM      30.04F
LAUREL         CLOUDY    52  48  87 CALM      30.05S
MERIDIAN       LGT RAIN  48  47  96 NW7       30.09R
JACKSON        CLOUDY    45  45 100 N8        30.11F FOG
MONTGOMERY     CLOUDY    57  55  93 N5        30.08F
TROY           CLOUDY    60  57  89 N16       30.07S
KINSTON*       NOT AVBL
GENEVA*          N/A     66  64  94 NW2       30.05S
ASHFORD*         N/A     57  57 100 NW12      30.06
DOTHAN         CLOUDY    66  64  93 W8        30.06S
PANAMA CITY    HVY RAIN  69  67  93 S7        30.00F FOG

$$




USA.gov is the U.S. government's official web portal to all federal, state and local government web resources and services.